Stations météo

réclame
Mon MeteoGroup
Hoburg A, Suède (2679): Température de l'air & dewpoint: 11.06.2019 21:00:00 - 17.06.2019 21:00:00 (CEST)Hoburg A, Suède (2679): Vitesse du vent & gusts: 11.06.2019 21:00:00 - 17.06.2019 21:00:00 (CEST)Hoburg A, Suède (2679): Direction du vent: 11.06.2019 21:00:00 - 17.06.2019 21:00:00 (CEST)Hoburg A, Suède (2679): reduced air pressure: 11.06.2019 21:00:00 - 17.06.2019 21:00:00 (CEST)Hoburg A, Suède (2679): visibility: 11.06.2019 21:00:00 - 17.06.2019 21:00:00 (CEST)Hoburg A, Suède (2679): Quantités de précipitations: 11.06.2019 21:00:00 - 17.06.2019 21:00:00 (CEST)
Date & Time tt [°C] td [°C] ff [km/h] ff [knt] fx [km/h] fx [knt] dd ppp [hPa] vv [km] rr [mm]
17.06.2019 21:00:00 - - - - - - - - - -
17.06.2019 20:00:00 16,5 13,2 19 11 29 16 WSW 1018,3 27 0,0
17.06.2019 19:00:00 16,9 13,4 22 12 34 18 SW 1018,5 28 0,0
17.06.2019 18:00:00 17,7 13,4 24 13 35 19 SW 1018,8 32 0,0
17.06.2019 17:00:00 18,0 13,5 26 14 36 20 SW 1018,8 35 0,0
17.06.2019 16:00:00 19,0 13,8 23 12 31 17 SW 1019,1 34 0,0
17.06.2019 15:00:00 18,2 13,7 20 11 31 17 SSW 1019,4 38 0,0
17.06.2019 14:00:00 19,1 13,7 19 10 27 15 SW 1019,5 32 0,0
17.06.2019 13:00:00 19,1 12,6 16 9 21 12 SW 1019,6 46 0,0
17.06.2019 12:00:00 19,7 12,7 14 8 23 12 WSW 1019,6 42 0,0
17.06.2019 11:00:00 18,1 12,1 21 11 27 14 WNW 1019,5 50 0,0
17.06.2019 10:00:00 17,7 12,4 18 10 28 15 WNW 1019,3 42 0,0
17.06.2019 09:00:00 17,0 12,1 21 12 28 15 NW 1019,0 50 0,0
17.06.2019 08:00:00 16,6 12,6 18 10 26 14 NW 1018,9 50 0,0
17.06.2019 07:00:00 15,9 12,8 19 10 28 15 NNW 1018,4 44 0,0
17.06.2019 06:00:00 15,5 12,4 22 12 36 19 NNW 1017,8 50 0,0
17.06.2019 05:00:00 15,0 13,5 24 13 33 18 NNW 1017,3 34 0,0
17.06.2019 04:00:00 15,2 13,4 19 10 30 16 NNW 1016,9 50 0,0
17.06.2019 03:00:00 16,1 13,8 19 11 29 16 NW 1016,6 50 0,0
17.06.2019 02:00:00 15,2 12,7 11 6 16 9 WNW 1016,5 50 0,0
17.06.2019 01:00:00 15,2 12,9 14 8 16 9 WNW 1016,1 49 0,0
17.06.2019 00:00:00 15,4 13,8 14 7 17 9 WNW 1016,2 48 0,0
16.06.2019 23:00:00 14,8 13,2 9 5 11 6 W 1016,1 42 0,0
16.06.2019 22:00:00 15,1 13,6 8 4 11 6 WNW 1015,8 33 0,0
16.06.2019 21:00:00 15,9 13,4 9 5 11 6 WNW 1015,6 50 0,0
16.06.2019 20:00:00 17,7 13,0 5 3 10 5 WSW 1015,3 50 0,0
16.06.2019 19:00:00 20,0 13,2 8 4 14 8 S 1015,1 50 0,0
16.06.2019 18:00:00 20,2 13,4 9 5 18 10 NW 1015,0 50 0,0
16.06.2019 17:00:00 20,3 13,0 6 3 24 13 W 1015,3 50 0,0
16.06.2019 16:00:00 20,4 12,9 16 9 24 13 NNW 1014,9 39 0,0
16.06.2019 15:00:00 22,4 12,9 11 6 22 12 NE 1014,6 47 0,0
16.06.2019 14:00:00 21,1 12,8 14 8 27 15 ENE 1014,9 49 0,0
16.06.2019 13:00:00 21,1 13,0 22 12 34 18 ENE 1014,6 50 0,0
16.06.2019 12:00:00 21,1 12,2 21 11 37 20 ENE 1014,6 46 0,0
16.06.2019 11:00:00 21,2 13,4 21 12 32 18 E 1014,0 43 0,0
16.06.2019 10:00:00 20,0 13,0 23 12 42 23 E 1013,9 50 0,0
16.06.2019 09:00:00 19,3 12,3 29 15 38 21 E 1013,3 50 0,0
16.06.2019 08:00:00 18,9 12,2 22 12 34 18 E 1013,1 50 0,0
16.06.2019 07:00:00 17,1 12,2 23 13 32 17 E 1013,0 50 0,0
16.06.2019 06:00:00 16,8 12,1 22 12 29 16 E 1013,2 50 0,0
16.06.2019 05:00:00 16,8 12,3 19 10 29 16 E 1013,6 50 0,0
16.06.2019 04:00:00 17,0 12,5 21 11 36 19 ESE 1014,2 50 0,0
16.06.2019 03:00:00 17,6 12,5 25 13 44 24 E 1013,8 50 0,0
16.06.2019 02:00:00 16,7 12,2 29 16 43 23 E 1013,9 50 0,0
16.06.2019 01:00:00 17,2 11,0 29 15 38 21 E 1014,3 50 0,0
16.06.2019 00:00:00 17,2 10,8 26 14 35 19 E 1014,7 50 0,0
15.06.2019 23:00:00 17,6 9,7 21 11 29 15 E 1014,5 50 0,0
15.06.2019 22:00:00 16,8 9,7 17 9 26 14 ENE 1014,8 50 0,0
15.06.2019 21:00:00 17,1 9,3 19 10 23 12 ENE 1015,1 50 0,0
15.06.2019 20:00:00 17,8 9,2 13 7 19 10 ENE 1016,2 50 0,0
15.06.2019 19:00:00 19,0 9,8 11 6 23 12 ENE 1016,9 50 0,0
15.06.2019 18:00:00 19,5 8,5 18 10 22 12 E 1017,5 50 0,0
15.06.2019 17:00:00 19,7 9,0 17 9 23 12 E 1017,7 50 0,0
15.06.2019 16:00:00 21,0 8,6 16 9 22 12 ESE 1018,3 48 0,0
15.06.2019 15:00:00 20,8 9,7 14 8 19 11 ESE 1018,8 39 0,0
15.06.2019 14:00:00 19,9 10,0 16 8 19 11 SSE 1019,1 45 0,0
15.06.2019 13:00:00 20,0 9,8 13 7 19 11 SSE 1019,3 49 0,0
15.06.2019 12:00:00 20,2 9,1 13 7 16 9 SSE 1019,8 50 0,0
15.06.2019 11:00:00 19,1 9,0 11 6 18 10 SE 1019,8 47 0,0
15.06.2019 10:00:00 17,9 9,5 11 6 16 8 S 1020,3 50 0,0
15.06.2019 09:00:00 17,5 9,4 8 5 16 9 S 1020,2 50 0,0
15.06.2019 08:00:00 16,2 11,1 10 6 18 10 SSW 1020,2 50 0,0
15.06.2019 07:00:00 15,9 11,1 6 3 16 9 S 1019,9 50 0,0
15.06.2019 06:00:00 15,4 11,6 10 5 14 7 SW 1020,4 50 0,0
15.06.2019 05:00:00 13,7 11,7 10 5 14 8 SW 1020,7 50 0,0
15.06.2019 04:00:00 13,2 12,3 10 5 15 8 SSW 1020,7 50 0,0
15.06.2019 03:00:00 13,1 12,0 9 5 12 7 SSE 1020,6 32 0,0
15.06.2019 02:00:00 13,3 12,0 10 5 18 10 SSE 1020,8 50 0,0
15.06.2019 01:00:00 13,0 11,2 11 6 15 8 SE 1020,9 50 0,0
15.06.2019 00:00:00 15,2 10,4 10 5 16 9 W 1020,8 50 0,0
14.06.2019 23:00:00 14,7 10,9 11 6 16 9 W 1020,9 50 0,0
14.06.2019 22:00:00 14,8 11,2 9 5 19 10 WSW 1020,7 50 0,0
14.06.2019 21:00:00 15,4 11,6 9 5 16 9 S 1020,4 50 0,0
14.06.2019 20:00:00 16,8 11,7 9 5 17 9 SW 1020,7 50 0,0
14.06.2019 19:00:00 17,6 12,1 11 6 18 10 SW 1020,6 50 0,0
14.06.2019 18:00:00 18,0 13,1 12 6 - - SW 1020,5 50 0,0
14.06.2019 17:00:00 20,0 11,0 14 8 22 12 WSW 1020,5 50 0,0
14.06.2019 16:00:00 20,9 11,0 12 6 18 10 W 1020,7 49 0,0
14.06.2019 15:00:00 19,9 14,0 13 7 20 11 WNW 1020,7 34 0,0
14.06.2019 14:00:00 18,0 13,7 16 9 22 12 WNW 1020,8 32 0,0
14.06.2019 13:00:00 17,4 13,7 16 9 22 12 W 1020,6 21 0,0
14.06.2019 12:00:00 18,5 13,4 16 9 21 11 WNW 1020,2 32 0,0
14.06.2019 11:00:00 18,0 14,3 10 5 20 11 WNW 1019,8 15 0,0
14.06.2019 10:00:00 17,0 13,1 14 7 19 10 WSW 1019,4 18 0,0
14.06.2019 09:00:00 18,5 13,8 11 6 17 9 SSE 1018,3 25 0,0
14.06.2019 08:00:00 17,3 13,4 10 6 14 8 SE 1017,8 21 0,0
14.06.2019 07:00:00 14,9 12,6 5 3 9 5 WSW 1018,2 10 0,0
14.06.2019 06:00:00 15,1 13,1 6 3 12 6 SSE 1017,8 8 0,0
14.06.2019 05:00:00 13,2 12,3 11 6 15 8 E 1017,2 3,8 0,0
14.06.2019 04:00:00 12,1 11,3 9 5 16 9 E 1016,7 3,8 0,0
14.06.2019 03:00:00 12,2 11,4 7 4 13 7 SE 1016,5 3,4 0,0
14.06.2019 02:00:00 12,3 11,5 5 3 8 4 ESE 1016,4 3,7 0,0
14.06.2019 01:00:00 13,1 12,0 6 3 15 8 SSE 1016,2 6 0,0
14.06.2019 00:00:00 15,6 13,3 4 2 12 6 SSW 1015,9 26 0,0
13.06.2019 23:00:00 13,9 12,1 9 5 - - W 1015,9 10 0,0
13.06.2019 22:00:00 13,5 12,2 9 5 13 7 WSW 1015,4 8 0,0
13.06.2019 21:00:00 13,9 12,6 9 5 11 6 SSW 1015,7 8 0,0
13.06.2019 20:00:00 14,3 12,9 8 4 16 9 SW 1014,9 9 0,0
13.06.2019 19:00:00 13,8 12,7 13 7 17 9 SW 1014,9 8 0,0
13.06.2019 18:00:00 14,3 12,9 13 7 18 10 S 1014,7 10 0,0
13.06.2019 17:00:00 14,6 13,0 10 5 17 9 S 1014,3 11 0,0
13.06.2019 16:00:00 16,2 13,9 10 5 18 10 SW 1013,7 11 0,0
13.06.2019 15:00:00 17,0 14,3 14 8 20 11 SW 1014,0 11 0,0
13.06.2019 14:00:00 17,7 15,0 11 6 21 11 W 1013,2 20 0,0
13.06.2019 13:00:00 15,4 13,4 16 9 24 13 W 1013,1 12 0,0
13.06.2019 12:00:00 15,9 13,4 14 7 23 12 WSW 1012,7 14 0,0
13.06.2019 11:00:00 13,6 12,5 16 9 28 15 WSW 1012,4 13 0,0
13.06.2019 10:00:00 18,2 14,9 6 4 22 12 SE 1011,0 30 0,0
13.06.2019 09:00:00 16,1 14,1 17 9 24 13 N 1008,9 16 0,4
13.06.2019 08:00:00 14,2 13,1 16 9 30 16 NNW 1010,8 11 0,0
13.06.2019 07:00:00 17,3 14,8 6 3 40 22 WSW 1009,9 22 0,0
13.06.2019 06:00:00 16,8 15,0 16 8 24 13 ESE 1008,5 14 0,0
13.06.2019 05:00:00 17,3 16,0 15 8 27 14 E 1008,5 8 0,1
13.06.2019 04:00:00 18,6 16,8 21 11 26 14 NNE 1008,7 4,4 1,4
13.06.2019 03:00:00 17,7 16,2 12 7 20 11 ESE 1010,3 11 0,0
13.06.2019 02:00:00 17,0 16,2 14 8 48 26 ESE 1010,4 8 0,0
13.06.2019 01:00:00 16,8 15,8 23 13 40 21 ESE 1010,7 9 0,0
13.06.2019 00:00:00 17,6 16,5 30 16 42 23 E 1010,7 13 0,0
12.06.2019 23:00:00 18,0 16,3 29 16 47 26 E 1011,3 17 0,0
12.06.2019 22:00:00 18,1 16,4 32 17 50 27 E 1011,5 18 0,0
12.06.2019 21:00:00 17,4 15,6 29 15 44 24 E 1011,1 22 0,0
12.06.2019 20:00:00 17,8 15,2 32 17 44 24 E 1011,2 25 0,0
12.06.2019 19:00:00 18,5 15,4 27 14 43 23 ENE 1011,9 35 0,0
12.06.2019 18:00:00 18,0 14,9 32 17 47 26 ENE 1012,3 32 0,0
12.06.2019 17:00:00 18,3 15,0 35 19 53 28 E 1013,0 31 0,0
12.06.2019 16:00:00 17,7 14,4 37 20 55 30 E 1013,8 32 0,0
12.06.2019 15:00:00 16,3 14,0 43 23 67 36 E 1014,1 20 0,0
12.06.2019 14:00:00 16,3 13,8 47 26 61 33 E 1014,0 24 0,0
12.06.2019 13:00:00 15,6 13,4 46 25 62 34 ENE 1014,7 23 0,0
12.06.2019 12:00:00 15,8 13,5 37 20 61 33 ENE 1015,6 28 0,0
12.06.2019 11:00:00 15,0 13,2 34 18 59 32 NE 1016,4 27 0,0
12.06.2019 10:00:00 16,1 13,9 42 23 58 31 ENE 1015,4 28 0,0
12.06.2019 09:00:00 15,2 14,4 39 21 56 30 NE 1015,4 33 0,0
12.06.2019 08:00:00 13,8 13,6 28 15 45 24 NE 1016,7 13 0,2
12.06.2019 07:00:00 13,3 13,1 29 16 54 29 NE 1016,4 1,3 0,0
12.06.2019 06:00:00 13,2 13,0 37 20 - - ENE 1014,8 0,9 0,0
12.06.2019 05:00:00 13,2 13,0 34 18 50 27 ENE 1015,0 1,3 0,0
12.06.2019 04:00:00 13,3 13,1 36 20 49 26 ENE 1015,4 2,2 0,0
12.06.2019 03:00:00 13,4 13,1 35 19 49 26 ENE 1015,9 0,9 0,0
12.06.2019 02:00:00 13,8 13,5 32 18 50 27 NE 1016,4 2,2 0,0
12.06.2019 01:00:00 14,0 13,7 32 18 45 25 ENE 1016,7 0,9 0,0
12.06.2019 00:00:00 13,9 13,6 32 18 50 27 NE 1016,6 1,8 0,0
11.06.2019 23:00:00 13,9 13,6 32 17 42 23 ENE 1016,6 3,1 0,0
11.06.2019 22:00:00 13,8 13,5 29 16 39 21 NE 1016,6 1,0 0,0
11.06.2019 21:00:00 13,9 13,5 26 14 42 23 ENE 1016,4 0,9 0,0

tt = Température de l'air
td = dewpoint
ff = Vitesse du vent
fx = gusts
dd = Direction du vent
ppp = reduced air pressure
vv = visibility
rr = Quantités de précipitations

stations d'obs. à proximité